GW0996 Weather Reports


time (UTC)temp
C
wind
direction
speed
KPH
gust
KPH
rain 1hr
cm
rain 24hr
cm
rain mn
cm
humidity
%
barometer
mb
20260507010446 12 311 0.0 0.0 0.00 0.10 0.00 85 1012.3
20260507005951 12 311 0.0 0.0 0.00 0.10 0.00 85 1012.3
20260507004947 12 311 0.0 0.0 0.00 0.10 0.00 83 1012.4
20260507004448 13 311 0.0 0.0 0.00 0.10 0.00 82 1012.3
20260507003950 13 311 0.0 1.6 0.00 0.10 0.00 80 1012.3
20260507002948 13 311 0.0 0.0 0.00 0.10 0.00 76 1012.2
20260507002449 13 311 0.0 0.0 0.00 0.10 0.00 76 1012.4
20260507001951 13 311 0.0 0.0 0.00 0.10 0.00 74 1012.3
20260507001448 13 311 0.0 3.2 0.00 0.10 0.00 74 1012.3
20260507000936 13 311 0.0 4.8 0.00 0.10 0.00 75 1012.3
20260507000435 13 311 0.0 4.8 0.00 0.10 0.00 74 1012.2
20260506235926 13 312 1.6 3.2 0.00 0.10 0.00 74 1012.4
20260506234926 13 308 3.2 9.7 0.00 0.10 0.00 74 1012.4
20260506234414 13 310 1.6 9.7 0.00 0.10 0.00 74 1012.5
20260506233913 13 326 3.2 6.4 0.00 0.10 0.00 74 1012.4
20260506233411 14 312 1.6 4.8 0.00 0.10 0.00 73 1012.4
20260506232903 14 312 1.6 4.8 0.00 0.10 0.00 72 1012.5
20260506231903 14 318 3.2 4.8 0.00 0.10 0.00 71 1012.5
20260506231402 14 316 3.2 4.8 0.00 0.10 0.00 72 1012.3
20260506230400 14 314 0.0 3.2 0.00 0.10 0.00 73 1012.6
20260506225359 14 313 3.2 6.4 0.00 0.10 0.00 70 1012.5
20260506224902 14 308 3.2 6.4 0.00 0.10 0.00 71 1012.2
20260506224401 14 314 3.2 6.4 0.00 0.10 0.00 73 1012.3
20260506223903 14 320 3.2 9.7 0.00 0.10 0.00 73 1012.3
20260506223349 14 313 1.6 9.7 0.00 0.10 0.00 73 1012.4
20260506222846 14 326 4.8 9.7 0.00 0.13 0.00 73 1012.5
20260506222348 14 322 1.6 9.7 0.00 0.13 0.00 74 1012.6
20260506221849 14 313 3.2 12.9 0.00 0.13 0.00 75 1012.6
20260506221348 14 315 3.2 12.9 0.00 0.15 0.00 75 1012.4
20260506220849 15 308 6.4 11.3 0.00 0.15 0.00 75 1012.2
20260506220350 15 317 8.0 11.3 0.00 0.15 0.00 76 1012.4
20260506215848 15 315 3.2 11.3 0.00 0.18 0.15 75 1012.2
20260506215350 15 317 1.6 9.7 0.00 0.18 0.15 76 1012.4
20260506214851 15 310 4.8 9.7 0.00 0.18 0.15 75 1012.3
20260506214349 15 329 4.8 6.4 0.00 0.18 0.15 76 1012.3
20260506213849 15 318 3.2 11.3 0.00 0.18 0.15 76 1012.2
20260506211851 15 311 0.0 9.7 0.00 0.18 0.15 79 1012.0
20260506211347 15 313 1.6 9.7 0.00 0.18 0.15 78 1012.1
20260506210849 15 330 6.4 9.7 0.00 0.18 0.15 78 1012.1
20260506210349 15 314 1.6 6.4 0.00 0.18 0.15 79 1012.0
20260506205835 15 319 0.0 4.8 0.00 0.18 0.15 80 1012.1
20260506205336 15 313 0.0 4.8 0.00 0.18 0.15 79 1011.9
20260506204834 15 326 0.0 4.8 0.00 0.18 0.15 79 1011.9
20260506204311 15 323 0.0 6.4 0.00 0.18 0.15 79 1012.0
20260506203300 15 313 1.6 4.8 0.00 0.18 0.15 79 1011.8
20260506202801 15 306 0.0 4.8 0.00 0.18 0.15 79 1011.6
20260506202306 15 296 1.6 12.9 0.00 0.18 0.15 79 1011.6
20260506201300 15 310 1.6 14.5 0.00 0.18 0.15 79 1011.5
20260506200803 15 302 4.8 14.5 0.00 0.18 0.15 79 1011.7
20260506200302 15 312 1.6 3.2 0.00 0.18 0.15 81 1011.6
20260506195759 15 309 0.0 3.2 0.00 0.18 0.15 82 1011.6
20260506195251 15 309 0.0 6.4 0.00 0.18 0.15 82 1011.4
20260506194747 15 317 0.0 6.4 0.00 0.18 0.15 81 1011.2
20260506193223 15 342 0.0 1.6 0.00 0.18 0.15 82 1011.2
20260506192708 15 333 0.0 3.2 0.00 0.20 0.15 82 1011.2
20260506192211 15 333 0.0 3.2 0.00 0.23 0.15 82 1011.2
20260506191655 15 319 1.6 4.8 0.00 0.25 0.15 81 1011.1
20260506191156 16 10 0.0 6.4 0.00 0.28 0.15 81 1010.9
20260506190656 16 315 3.2 6.4 0.00 0.33 0.15 81 1010.9
20260506190155 16 339 0.0 3.2 0.00 0.36 0.15 82 1010.9
20260506185643 16 358 0.0 4.8 0.00 0.38 0.15 81 1010.7
20260506185145 16 4 0.0 4.8 0.00 0.41 0.15 81 1010.7
20260506184645 16 309 1.6 4.8 0.00 0.43 0.15 79 1010.7
20260506184144 16 1 0.0 4.8 0.00 0.46 0.15 77 1010.7
20260506183643 16 42 1.6 4.8 0.00 0.48 0.15 75 1010.6
20260506183144 16 300 0.0 3.2 0.00 0.51 0.15 74 1010.5
20260506181646 17 314 0.0 4.8 0.00 0.61 0.15 72 1010.3
20260506181145 17 315 0.0 4.8 0.00 0.64 0.15 72 1010.3
20260506180646 17 314 1.6 4.8 0.00 0.71 0.15 71 1010.4
20260506180145 17 313 0.0 4.8 0.00 0.74 0.15 71 1010.5
20260506175648 17 318 0.0 6.4 0.00 0.79 0.15 70 1010.2
20260506175145 17 322 0.0 6.4 0.00 0.79 0.15 69 1010.3
20260506174645 18 322 3.2 6.4 0.00 0.79 0.15 68 1010.1
20260506174145 18 233 0.0 1.6 0.00 0.79 0.15 69 1010.0
20260506173648 18 232 0.0 4.8 0.00 0.79 0.15 67 1010.1
20260506173144 19 226 0.0 4.8 0.00 0.79 0.15 67 1009.9
20260506172647 19 238 0.0 3.2 0.00 0.79 0.15 66 1009.9
20260506172143 19 237 1.6 6.4 0.00 0.79 0.15 66 1009.7
20260506171643 19 206 0.0 6.4 0.00 0.81 0.15 65 1009.7
20260506171146 20 203 0.0 1.6 0.00 0.81 0.15 65 1009.8
20260506170645 20 222 0.0 3.2 0.00 0.81 0.15 64 1009.5
20260506170142 20 203 0.0 3.2 0.00 0.86 0.15 63 1009.5
20260506165645 20 232 0.0 4.8 0.00 0.99 0.15 62 1009.5
20260506165144 20 231 1.6 4.8 0.00 0.99 0.15 62 1009.4
20260506164146 20 219 0.0 3.2 0.00 1.22 0.15 62 1009.5
20260506163645 20 189 1.6 4.8 0.00 1.27 0.15 61 1009.5
20260506163144 20 183 3.2 4.8 0.00 1.52 0.15 61 1009.3
20260506162646 20 177 0.0 3.2 0.00 1.73 0.15 63 1009.0
20260506162144 20 236 1.6 4.8 0.00 1.91 0.15 62 1009.1
20260506161149 20 249 0.0 11.3 0.00 2.67 0.15 62 1009.0
20260506160646 20 158 1.6 11.3 0.00 3.15 0.15 61 1009.2
20260506160145 20 254 1.6 4.8 0.00 3.71 0.15 61 1009.3
20260506155645 20 238 0.0 3.2 0.00 4.04 0.15 62 1009.1
20260506155145 20 252 0.0 4.8 0.00 4.19 0.15 63 1009.2
20260506154644 20 203 3.2 6.4 0.00 4.60 0.15 62 1009.1
20260506154145 20 212 3.2 6.4 0.00 5.13 0.15 61 1009.1
20260506153644 20 258 1.6 4.8 0.00 5.41 0.15 61 1009.1
20260506153143 21 259 0.0 4.8 0.00 5.61 0.15 61 1009.1
20260506152644 20 255 0.0 9.7 0.00 6.10 0.15 63 1009.1
20260506152143 20 231 1.6 9.7 0.00 6.32 0.15 61 1009.2
20260506151642 21 215 3.2 6.4 0.00 6.32 0.15 60 1009.3
20260506151145 21 63 1.6 4.8 0.00 6.35 0.15 61 1009.4
20260506150643 20 234 1.6 4.8 0.00 6.35 0.15 60 1009.3
20260506150144 21 209 1.6 4.8 0.00 6.35 0.15 60 1009.4
20260506145644 21 136 0.0 4.8 0.00 6.35 0.15 60 1009.2
20260506145143 21 244 0.0 6.4 0.00 6.35 0.15 59 1009.4
20260506144643 21 239 0.0 6.4 0.00 6.35 0.15 59 1009.5
20260506144144 21 215 0.0 4.8 0.00 6.35 0.15 60 1009.4
20260506143642 21 239 3.2 3.2 0.00 6.35 0.15 60 1009.3
20260506143142 21 247 1.6 3.2 0.00 6.38 0.15 59 1009.3
20260506142647 21 232 1.6 4.8 0.00 6.38 0.15 61 1009.4
20260506142132 21 149 1.6 6.4 0.00 6.40 0.15 62 1009.6
20260506141132 21 210 1.6 3.2 0.00 6.40 0.15 60 1009.5
20260506140621 21 229 0.0 6.4 0.00 6.40 0.15 59 1009.3
20260506140119 21 247 0.0 6.4 0.00 6.40 0.15 60 1009.5
20260506135619 21 146 4.8 6.4 0.00 6.40 0.15 59 1009.3
20260506135106 21 243 1.6 6.4 0.00 6.40 0.15 60 1009.4
20260506134607 21 216 3.2 9.7 0.00 6.40 0.15 59 1009.4
20260506134111 21 178 1.6 9.7 0.00 6.40 0.15 60 1009.5
20260506133556 20 208 1.6 11.3 0.00 6.40 0.15 59 1009.6
20260506132055 22 151 1.6 9.7 0.00 6.40 0.15 57 1009.6
20260506131055 21 267 4.8 4.8 0.00 6.40 0.15 60 1009.8
20260506130556 21 222 0.0 4.8 0.00 6.40 0.15 59 1010.0
20260506130055 21 230 3.2 6.4 0.00 6.40 0.15 59 1010.0
20260506125055 20 232 3.2 6.4 0.00 6.40 0.15 61 1010.3
20260506124555 20 224 1.6 6.4 0.00 6.40 0.15 63 1010.4
20260506124054 21 249 3.2 6.4 0.00 6.40 0.15 63 1010.2
20260506123555 20 263 3.2 6.4 0.00 6.40 0.15 63 1010.3
20260506122054 20 259 3.2 6.4 0.00 6.40 0.15 63 1010.5
20260506121554 21 208 3.2 6.4 0.00 6.40 0.15 63 1010.3
20260506121054 20 258 0.0 4.8 0.00 6.40 0.15 66 1010.1
20260506120054 20 193 1.6 6.4 0.00 6.40 0.15 67 1010.3
20260506115554 20 102 3.2 6.4 0.00 6.40 0.15 67 1010.4
20260506114554 20 192 3.2 9.7 0.00 6.40 0.15 67 1010.3
20260506114056 20 226 4.8 9.7 0.00 6.40 0.15 65 1010.2
20260506113554 20 49 1.6 9.7 0.00 6.40 0.15 67 1010.4
20260506113055 20 205 3.2 9.7 0.00 6.40 0.15 65 1010.3
20260506112555 20 200 1.6 9.7 0.00 6.40 0.15 65 1010.3
20260506112058 20 193 0.0 6.4 0.00 6.40 0.15 65 1010.2
20260506111554 20 145 3.2 6.4 0.00 6.40 0.15 66 1010.2
20260506111055 20 222 0.0 4.8 0.00 6.40 0.15 66 1010.4
20260506110553 20 168 1.6 4.8 0.00 6.40 0.15 64 1010.4
20260506110055 20 151 0.0 4.8 0.00 6.40 0.15 68 1010.4
20260506105055 20 230 0.0 4.8 0.00 6.40 0.15 68 1010.8
20260506104055 20 197 0.0 3.2 0.00 6.40 0.15 68 1010.7
20260506103055 20 201 1.6 6.4 0.00 6.40 0.15 68 1010.9
20260506102057 20 129 0.0 11.3 0.00 6.40 0.15 73 1010.8
20260506101554 20 138 6.4 9.7 0.00 6.40 0.15 70 1010.9
20260506101100 20 234 0.0 3.2 0.00 6.40 0.15 68 1010.8
20260506100555 19 236 0.0 3.2 0.00 6.40 0.15 67 1010.9
20260506100056 18 145 0.0 3.2 0.00 6.40 0.15 74 1010.8
20260506095556 18 203 0.0 6.4 0.00 6.40 0.15 75 1011.1
20260506095056 17 155 0.0 6.4 0.00 6.40 0.15 76 1010.9
20260506094555 17 120 1.6 4.8 0.00 6.40 0.15 75 1010.8
20260506094057 17 175 0.0 4.8 0.00 6.40 0.15 75 1011.1
20260506093057 16 231 1.6 4.8 0.00 6.40 0.15 77 1010.9
20260506092554 16 239 0.0 1.6 0.00 6.40 0.15 82 1011.0
20260506091555 16 238 0.0 4.8 0.00 6.40 0.15 83 1011.0
20260506090555 16 213 0.0 12.9 0.00 6.40 0.15 81 1010.8
20260506090057 16 136 0.0 12.9 0.00 6.40 0.15 83 1010.8
20260506085555 16 247 1.6 9.7 0.00 6.40 0.15 82 1010.4
20260506085058 16 233 1.6 6.4 0.00 6.40 0.15 84 1010.8
20260506084555 15 132 1.6 6.4 0.00 6.40 0.15 85 1011.0
20260506084057 15 129 3.2 9.7 0.00 6.40 0.15 85 1010.6
20260506083555 15 140 3.2 9.7 0.00 6.40 0.15 86 1010.6
20260506083057 15 103 3.2 4.8 0.00 6.40 0.15 85 1010.8
20260506082055 15 168 0.0 9.7 0.00 6.40 0.15 86 1010.6
20260506081554 15 172 3.2 6.4 0.00 6.40 0.15 86 1010.8
20260506081056 15 176 0.0 6.4 0.00 6.40 0.15 87 1010.7
20260506073055 15 289 1.6 4.8 0.00 6.40 0.15 85 1010.3
20260506072554 15 158 1.6 6.4 0.00 6.40 0.15 85 1010.6
20260506072056 15 299 1.6 6.4 0.00 6.40 0.15 86 1010.5
20260506071056 15 289 6.4 6.4 0.00 6.40 0.15 85 1010.3
20260506070554 15 252 1.6 6.4 0.00 6.40 0.15 85 1010.2
20260506062056 14 175 0.0 11.3 0.08 6.43 0.15 87 1010.4
20260506061553 14 247 1.6 11.3 0.08 6.43 0.15 87 1010.6
20260506061056 14 231 0.0 4.8 0.08 6.43 0.15 88 1010.4
20260506060557 14 258 1.6 9.7 0.08 6.43 0.15 88 1010.3
20260506050553 14 352 0.0 6.4 0.00 6.50 0.08 85 1010.2
20260506045045 14 228 1.6 6.4 0.00 6.53 0.08 84 1010.5
20260506044044 14 23 0.0 6.4 0.00 6.53 0.08 85 1010.2
20260506043543 14 286 0.0 6.4 0.00 6.53 0.08 85 1010.3
20260506042031 14 295 0.0 6.4 0.00 6.58 0.08 86 1010.3
20260506041530 14 186 0.0 9.7 0.00 6.60 0.08 85 1010.3
20260506041032 14 69 3.2 9.7 0.00 6.65 0.08 87 1010.3
20260506040518 14 105 3.2 6.4 0.00 6.65 0.08 87 1010.3
20260506040018 14 250 0.0 1.6 0.00 6.68 0.08 88 1010.5
20260506035517 14 266 1.6 3.2 0.00 6.68 0.08 87 1010.6
20260506034953 14 274 3.2 3.2 0.00 6.68 0.08 86 1010.6
20260506034456 14 271 1.6 3.2 0.00 6.68 0.08 86 1010.5
20260506033956 15 151 0.0 3.2 0.00 6.68 0.08 86 1010.6
20260506033455 15 152 1.6 3.2 0.00 6.68 0.08 86 1010.5
20260506032956 15 137 0.0 6.4 0.00 6.71 0.08 86 1010.4
20260506032443 15 159 0.0 6.4 0.00 6.71 0.08 86 1010.5
20260506031944 15 245 0.0 3.2 0.00 6.71 0.08 87 1010.6
20260506031442 15 233 0.0 3.2 0.00 6.71 0.08 87 1010.7
20260506030917 15 242 0.0 3.2 0.00 6.71 0.08 86 1010.7
20260506025919 15 113 1.6 9.7 0.00 6.71 0.08 87 1010.6
20260506025406 15 157 3.2 9.7 0.00 6.71 0.08 89 1010.5
20260506024907 15 100 1.6 9.7 0.03 6.71 0.08 90 1010.5
20260506024406 15 102 3.2 9.7 0.03 6.73 0.08 90 1010.5
20260506023854 15 312 1.6 9.7 0.03 6.76 0.08 90 1010.6
20260506023355 15 65 1.6 9.7 0.03 6.78 0.08 89 1010.7
20260506022855 15 211 0.0 6.4 0.03 6.78 0.08 90 1010.8
20260506022354 15 129 0.0 6.4 0.03 6.83 0.08 89 1010.6
20260506021356 15 222 0.0 3.2 0.03 6.86 0.08 90 1010.5
20260506020857 15 192 1.6 3.2 0.03 6.88 0.08 90 1010.5
20260506020356 15 247 0.0 3.2 0.03 6.91 0.08 91 1010.8
20260506015856 15 277 0.0 11.3 0.03 6.93 0.08 90 1010.8
20260506015357 15 348 6.4 11.3 0.03 6.93 0.08 90 1010.6
20260506014855 15 123 1.6 4.8 0.00 6.91 0.05 90 1010.6
20260506014344 15 118 1.6 4.8 0.00 6.93 0.05 90 1010.2
20260506013842 15 179 0.0 3.2 0.00 6.93 0.05 90 1010.4
20260506012842 15 30 1.6 6.4 0.00 6.96 0.05 90 1010.7
20260506012343 15 314 1.6 9.7 0.00 6.99 0.05 91 1010.7
20260506010841 15 87 0.0 4.8 0.00 7.04 0.05 91 1011.0